SALSAT

Last updated on Thu Nov 21 2024 00:03:02 GMT+0000 (Coordinated Universal Time)

1 46495U 20068K 24325.21280171 .00010628 00000+0 53234-3 0 9998 2 46495 97.8379 289.0425 0014362 130.6963 229.5519 15.17486288227933
UTC large
Height (km)
Speed (km/s)
/
Latitude / Longitude
Inclination (degrees)
Orbital Period (minutes)
Azimuth
Elevation
Range (km)
Doppler Factor

Next 0 passes for location: London (51.5072 / 0.1276)

Sorry there are no passes over London.